Hourly Data Report for October 12, 2016

All times are specified in Local Standard Time (LST). Add 1 hour to adjust for Daylight Saving Time where and when it is observed.

BAKER LAKE A
NUNAVUT

64°17'56.000" N
96°04'40.000" W
18.60 m
2300503
71926
YBK

Download Data

Hourly Data (October 2016)
Hourly Data Report for October 12, 2016
Temp Definition
°C
Dew Point Temp Definition
°C
Rel Hum Definition
%
Wind Dir Definition
10's deg

Wind Spd Definition
km/h
Visibility Definition
km
Stn Press Definition
kPa
Hmdx Definition


Wind Chill Definition


Weather Definition


TIME
00:00 Legend Double Dagger -7.2 -9.0 87 27 9 24.1 100.63   -12 Snow
01:00 Legend Double Dagger -7.6 -9.4 87 28 11 24.1 100.60   -13 Snow
02:00 Legend Double Dagger -7.2 -8.9 88 29 11 24.1 100.56   -12 Snow
03:00 Legend Double Dagger -6.7 -8.2 89 29 13 6.4 100.51   -12 Snow
04:00 Legend Double Dagger -6.4 -7.9 89 29 10 19.3 100.46   -11 Snow
05:00 Legend Double Dagger -6.0 -7.5 89 30 18 24.1 100.42   -12 Snow
06:00 Legend Double Dagger -5.7 -7.2 89 30 18 6.4 100.37   -12 Snow,Blowing Snow
07:00 Legend Double Dagger -4.9 -6.3 90 2 16 1.6 100.37   -11 Snow,Fog
08:00 Legend Double Dagger -5.1 -6.8 88 1 17 2.4 100.33   -11 Snow
09:00 Legend Double Dagger -4.7 -6.7 86 1 28 8.1 100.28   -12 Snow
10:00 Legend Double Dagger -5.0 -7.1 85 36 39 16.1 100.24   -14 Snow,Blowing Snow
11:00 Legend Double Dagger -6.3 -8.4 85 33 40 32.2 100.21   -16 Snow,Blowing Snow
12:00 Legend Double Dagger -6.9 -9.0 85 34 44 32.2 100.16   -17 Blowing Snow
13:00 Legend Double Dagger -6.7 -8.8 85 34 51 32.2 100.15   -17 LegendNANA
14:00 Legend Double Dagger -6.2 -8.5 84 34 49 32.2 100.14   -17 Blowing Snow
15:00 Legend Double Dagger -6.2 -8.6 83 34 49 32.2 100.16   -17 Blowing Snow
16:00 Legend Double Dagger -6.0 -8.4 83 34 52 32.2 100.17   -16 Blowing Snow
17:00 Legend Double Dagger -6.6 -9.2 82 33 45 32.2 100.20   -17 Blowing Snow
18:00 Legend Double Dagger -7.2 -9.8 82 33 39 32.2 100.24   -17 Blowing Snow
19:00 Legend Double Dagger -7.5 -10.1 82 34 43 24.1 100.22   -18 Blowing Snow
20:00 Legend Double Dagger -7.4 -10.1 81 33 43 24.1 100.18   -18 LegendNANA
21:00 Legend Double Dagger -8.1 -10.7 82 32 40 24.1 100.17   -18 Cloudy
22:00 Legend Double Dagger -8.1 -10.5 83 32 39 24.1 100.15   -18 Snow
23:00 Legend Double Dagger -7.9 -10.5 82 32 45 24.1 100.09   -18 LegendNANA

Notes on Data Quality.

Legend

  • E = Estimated
  • M = Missing
  • NA = Not Available
  • ‡ = Partner data that is not subject to review by the National Climate Archives
Date modified: